Total_Precipitation_Accumulation
0.95 0.96 0.95 0.88 0.82 0.80 0.83 0.81 0.73 0.64 0.57 0.50 0.45 0.44 0.43 0.40 0.40 0.43 0.44 0.47 0.55 0.58 0.56 0.57 0.62 0.67 0.75 0.82 0.91 1.01 1.14 1.25 1.34 1.18 0.98 0.93 0.96 0.99 1.04 0.92 0.85 0.81 0.75
0.78 0.77 0.77 0.69 0.64 0.62 0.61 0.61 0.56 0.53 0.52 0.50 0.48 0.46 0.42 0.37 0.36 0.36 0.36 0.36 0.39 0.42 0.45 0.48 0.48 0.49 0.57 0.64 0.73 0.82 0.91 1.02 1.17 1.18 1.01 0.94 0.95 1.01 1.07 1.04 0.90 0.76 0.70
0.53 0.54 0.60 0.60 0.57 0.59 0.55 0.53 0.55 0.52 0.48 0.46 0.45 0.43 0.40 0.37 0.38 0.37 0.34 0.33 0.33 0.34 0.37 0.40 0.43 0.47 0.53 0.59 0.67 0.71 0.79 0.86 1.01 1.10 1.02 0.96 0.98 1.03 1.11 1.06 0.89 0.84 0.64
0.41 0.40 0.46 0.50 0.51 0.52 0.53 0.50 0.47 0.44 0.42 0.37 0.33 0.34 0.35 0.33 0.30 0.29 0.28 0.29 0.29 0.29 0.30 0.32 0.35 0.41 0.48 0.56 0.61 0.67 0.77 0.87 0.95 1.05 1.06 1.04 1.05 1.06 1.11 1.14 0.97 0.83 0.66
0.43 0.44 0.46 0.49 0.48 0.49 0.50 0.49 0.42 0.37 0.33 0.30 0.28 0.29 0.30 0.27 0.23 0.22 0.23 0.23 0.26 0.28 0.29 0.30 0.28 0.34 0.42 0.47 0.54 0.67 0.81 0.92 0.95 1.01 1.05 1.07 1.08 1.13 1.11 1.04 0.96 0.82 0.66
0.52 0.53 0.50 0.48 0.49 0.51 0.49 0.45 0.39 0.36 0.32 0.28 0.29 0.28 0.24 0.20 0.21 0.20 0.19 0.24 0.29 0.33 0.38 0.35 0.28 0.26 0.30 0.35 0.44 0.55 0.67 0.82 0.94 1.02 1.05 1.02 1.01 1.04 1.04 1.01 1.01 0.97 0.84
0.55 0.52 0.48 0.44 0.43 0.42 0.38 0.39 0.36 0.36 0.33 0.30 0.30 0.29 0.26 0.18 0.15 0.15 0.16 0.22 0.32 0.39 0.41 0.39 0.32 0.26 0.32 0.39 0.40 0.44 0.52 0.65 0.85 1.02 1.09 0.98 1.01 1.07 1.13 1.13 1.04 1.04 0.97
0.50 0.46 0.41 0.38 0.39 0.37 0.37 0.38 0.35 0.36 0.38 0.34 0.31 0.31 0.30 0.17 0.13 0.14 0.16 0.25 0.34 0.35 0.33 0.34 0.39 0.44 0.37 0.36 0.40 0.52 0.67 0.75 0.78 0.80 0.95 0.96 0.98 0.97 0.94 0.97 0.96 1.00 0.90
0.45 0.40 0.35 0.31 0.31 0.32 0.33 0.36 0.37 0.40 0.43 0.36 0.31 0.33 0.31 0.22 0.16 0.16 0.17 0.27 0.34 0.32 0.29 0.28 0.32 0.40 0.37 0.41 0.55 0.76 0.95 1.09 0.94 0.88 0.93 1.04 1.06 0.95 0.78 0.79 1.00 1.10 0.95
0.36 0.32 0.29 0.29 0.30 0.33 0.35 0.38 0.34 0.37 0.43 0.34 0.27 0.29 0.26 0.21 0.15 0.17 0.20 0.25 0.34 0.35 0.36 0.34 0.36 0.39 0.40 0.52 0.67 0.91 1.13 1.24 1.06 0.99 1.09 1.21 1.14 1.06 0.98 0.99 1.13 1.10 0.96
0.23 0.23 0.25 0.28 0.28 0.27 0.34 0.38 0.36 0.36 0.39 0.36 0.31 0.30 0.25 0.17 0.15 0.18 0.18 0.21 0.29 0.37 0.40 0.44 0.46 0.47 0.45 0.57 0.76 0.94 1.14 1.19 1.13 1.10 1.09 1.08 1.06 1.06 0.99 0.98 0.97 0.94 0.92
0.19 0.22 0.24 0.24 0.20 0.20 0.31 0.34 0.35 0.40 0.37 0.36 0.35 0.32 0.26 0.20 0.14 0.12 0.12 0.13 0.23 0.38 0.49 0.52 0.52 0.51 0.53 0.69 0.84 1.04 1.25 1.34 1.22 1.07 0.94 0.87 0.84 0.87 0.83 0.72 0.67 0.65 0.69
0.22 0.26 0.25 0.22 0.21 0.20 0.25 0.28 0.30 0.36 0.36 0.33 0.32 0.31 0.27 0.23 0.15 0.08 0.08 0.10 0.15 0.28 0.43 0.57 0.58 0.54 0.69 0.98 1.15 1.27 1.43 1.48 1.27 0.99 0.87 0.78 0.70 0.66 0.63 0.62 0.58 0.54 0.51
0.28 0.28 0.26 0.27 0.27 0.22 0.21 0.20 0.21 0.24 0.26 0.30 0.30 0.30 0.28 0.25 0.17 0.12 0.13 0.15 0.18 0.23 0.36 0.54 0.68 0.72 0.88 1.17 1.37 1.47 1.53 1.42 1.16 0.94 0.80 0.71 0.62 0.58 0.59 0.55 0.55 0.51 0.53
0.26 0.22 0.21 0.21 0.22 0.23 0.18 0.12 0.11 0.11 0.10 0.16 0.22 0.24 0.25 0.21 0.13 0.13 0.15 0.18 0.21 0.26 0.34 0.50 0.69 0.79 0.99 1.21 1.33 1.35 1.29 1.19 1.08 0.90 0.76 0.68 0.65 0.61 0.59 0.53 0.51 0.46 0.49
0.23 0.19 0.17 0.15 0.14 0.13 0.15 0.13 0.07 0.06 0.06 0.08 0.11 0.14 0.14 0.14 0.12 0.12 0.13 0.18 0.23 0.30 0.38 0.58 0.76 0.85 0.99 1.12 1.19 1.15 1.06 0.97 0.88 0.80 0.73 0.65 0.62 0.58 0.57 0.50 0.44 0.43 0.48
0.16 0.15 0.13 0.10 0.10 0.12 0.13 0.18 0.19 0.13 0.08 0.08 0.09 0.11 0.11 0.11 0.11 0.11 0.13 0.18 0.21 0.27 0.41 0.62 0.78 0.89 0.99 1.02 1.02 0.98 0.91 0.86 0.75 0.68 0.65 0.60 0.54 0.50 0.47 0.43 0.38 0.39 0.39
0.08 0.06 0.06 0.08 0.08 0.09 0.09 0.10 0.16 0.24 0.25 0.19 0.12 0.09 0.08 0.10 0.12 0.13 0.15 0.19 0.26 0.31 0.46 0.62 0.73 0.79 0.85 0.89 0.86 0.84 0.80 0.72 0.64 0.60 0.60 0.56 0.47 0.42 0.38 0.35 0.33 0.30 0.30
0.06 0.06 0.04 0.04 0.04 0.04 0.04 0.05 0.09 0.14 0.19 0.21 0.18 0.13 0.09 0.11 0.14 0.17 0.19 0.24 0.33 0.39 0.47 0.57 0.64 0.67 0.70 0.73 0.70 0.67 0.65 0.61 0.54 0.50 0.50 0.50 0.47 0.40 0.33 0.27 0.23 0.17 0.19
0.03 0.03 0.02 0.02 0.02 0.02 0.03 0.05 0.07 0.09 0.13 0.16 0.18 0.16 0.15 0.23 0.29 0.27 0.23 0.22 0.28 0.35 0.43 0.51 0.54 0.53 0.52 0.54 0.51 0.46 0.46 0.46 0.44 0.43 0.42 0.41 0.39 0.33 0.27 0.22 0.18 0.16 0.15
0.02 0.01 0.01 0.01 0.01 0.02 0.03 0.04 0.06 0.07 0.11 0.15 0.14 0.12 0.19 0.26 0.35 0.32 0.29 0.29 0.32 0.35 0.37 0.39 0.42 0.43 0.38 0.36 0.36 0.35 0.36 0.37 0.36 0.37 0.36 0.34 0.31 0.26 0.20 0.15 0.12 0.10 0.09
0.01 0.01 0.01 0.01 0.01 0.01 0.02 0.03 0.04 0.05 0.08 0.11 0.11 0.10 0.19 0.25 0.32 0.33 0.34 0.35 0.36 0.37 0.35 0.34 0.33 0.34 0.35 0.33 0.31 0.30 0.30 0.31 0.32 0.33 0.31 0.29 0.26 0.20 0.15 0.11 0.08 0.06 0.06
0.01 0.01 0.01 0.01 0.00 0.01 0.01 0.02 0.03 0.03 0.05 0.07 0.08 0.10 0.15 0.24 0.31 0.37 0.40 0.40 0.39 0.36 0.32 0.29 0.30 0.32 0.31 0.28 0.26 0.25 0.24 0.25 0.28 0.30 0.30 0.26 0.21 0.17 0.12 0.09 0.06 0.05 0.04
0.00 0.00 0.00 0.00 0.00 0.00 0.01 0.01 0.02 0.02 0.03 0.04 0.06 0.08 0.12 0.19 0.26 0.34 0.40 0.43 0.45 0.43 0.38 0.34 0.32 0.31 0.28 0.25 0.24 0.22 0.18 0.19 0.22 0.26 0.26 0.22 0.16 0.12 0.09 0.08 0.06 0.05 0.04
0.00 0.00 0.00 0.00 0.00 0.00 0.01 0.01 0.01 0.01 0.02 0.02 0.03 0.06 0.08 0.12 0.18 0.25 0.32 0.37 0.42 0.46 0.46 0.43 0.39 0.33 0.27 0.22 0.18 0.15 0.17 0.19 0.17 0.17 0.22 0.19 0.12 0.08 0.08 0.06 0.05 0.05 0.04
0.00 0.00 0.00 0.00 0.00 0.00 0.00 0.01 0.01 0.01 0.01 0.01 0.02 0.03 0.06 0.09 0.13 0.17 0.20 0.23 0.27 0.34 0.40 0.44 0.44 0.34 0.25 0.20 0.18 0.17 0.15 0.11 0.07 0.07 0.17 0.17 0.12 0.09 0.08 0.07 0.05 0.05 0.05